Flag for Germany Weather past 2 weeks in Ettlingen, Baden-Württemberg, Germany

Now
61 °F

Clear.


Feels Like: 61 °F
Forecast: 61 / 90 °F
Wind: 6 mph from Northeast

Location: Karlsruhe - Baden Wurttemberg

Current Time: Jun 30, 2015 at 6:32:19 AM

Latest Report: Jun 30, 2015 at 5:50 AM


Visibility: 10 mi

Pressure: 30.12 "Hg

Humidity: 77%

Dew point: 54 °F

Location of EttlingenLocation

Historic Weather in Ettlingen — Graph

°F

Ettlingen temperature yesterday

Maximum temperature yesterday: 84 °F (at 4:20 PM)
Minimum temperature yesterday: 57 °F (at 5:20 AM)
Average temperature yesterday: 73 °F

Past Weeks' High & Low Weather Summary

 TemperatureHumidityPressure
High84 °F (Jun 29, 4:20 PM)94% (Jun 18, 11:20 AM)30.24 "Hg (Jun 18, 11:20 AM)
Low48 °F (Jun 23, 6:20 AM)23% (Jun 26, 3:20 PM)29.74 "Hg (Jun 22, 7:50 PM)
Average64 °F64%30.09 "Hg
* Reported Jun 15 5:20 AM — Jun 30 5:20 AM, Ettlingen, Weather by CustomWeather, © 2015

Note: Actual official high and low records may vary slightly from our data, if they occured in-between our weather recording intervals... More about our weather records

Advertising

Ettlingen weather history for previous 24 hours

 ConditionsComfort  
Time TempWeatherWind HumidityBarometerVisibility
5:20 AM
Tue, Jun 30
61 °FClear.7 mph77%30.12 "Hg10 mi
11:20 PM
Mon, Jun 29
70 °FClear.No wind64%30.15 "Hg10 mi
10:50 PM72 °FClear.1 mph61%30.15 "Hg10 mi
10:20 PM73 °FSunny.2 mph53%30.15 "Hg10 mi
9:50 PM75 °FSunny.3 mph47%30.12 "Hg4 mi
9:20 PM79 °FSunny.1 mph39%30.12 "Hg10 mi
8:50 PM81 °FSunny.3 mph37%30.12 "Hg10 mi
8:20 PM81 °FSunny.3 mph37%30.12 "Hg10 mi
7:50 PM82 °FSunny.3 mph37%30.12 "Hg10 mi
7:20 PM84 °FSunny.3 mph33%30.12 "Hg10 mi
6:50 PM84 °FPassing clouds.5 mph35%30.12 "HgN/A
6:20 PM84 °FPassing clouds.6 mph35%30.09 "HgN/A
5:50 PM84 °FSunny.3 mph37%30.09 "Hg10 mi
5:20 PM82 °FPassing clouds.7 mph35%30.12 "HgN/A
4:50 PM84 °FPassing clouds.5 mph33%30.12 "HgN/A
4:20 PM84 °FPassing clouds.6 mph33%30.12 "HgN/A
3:50 PM82 °FPassing clouds.8 mph35%30.12 "HgN/A
3:20 PM82 °FPassing clouds.5 mph32%30.12 "HgN/A
2:50 PM82 °FSunny.6 mph32%30.12 "Hg10 mi
2:20 PM81 °FSunny.5 mph37%30.15 "Hg10 mi
1:50 PM81 °FSunny.3 mph37%30.15 "Hg10 mi
1:20 PM81 °FSunny.3 mph37%30.15 "Hg10 mi
12:50 PM77 °FPassing clouds.5 mph42%30.15 "HgN/A
12:20 PM77 °FPassing clouds.6 mph51%30.15 "HgN/A
11:50 AM75 °FPassing clouds.7 mph54%30.15 "HgN/A
11:20 AM73 °FPassing clouds.5 mph53%30.15 "HgN/A
10:50 AM72 °FSunny.2 mph57%30.15 "Hg10 mi
10:20 AM70 °FSunny.3 mph60%30.18 "Hg10 mi
9:50 AM68 °FPassing clouds.6 mph64%30.15 "HgN/A
9:20 AM66 °FPassing clouds.5 mph64%30.15 "HgN/A
8:50 AM64 °FPassing clouds.6 mph68%30.15 "HgN/A
8:20 AM63 °FSunny.6 mph73%30.15 "Hg10 mi
7:50 AM61 °FSunny.3 mph83%30.15 "Hg10 mi
7:20 AM59 °FSunny.2 mph88%30.15 "Hg10 mi
6:50 AM57 °FSunny.5 mph88%30.15 "Hg10 mi
6:20 AM57 °FClear.3 mph82%30.12 "Hg10 mi
Weather by CustomWeather, © 2015

See weather overviewHow to use our weather pages